Weather History for Elkins, WV

Change the Weather History Date:

Wednesday, April 17, 2013

  Actual Average Record
Temperature  
Mean Temperature 63 °F 50 °F  
Max Temperature 75 °F 64 °F 87 °F (1976)
Min Temperature 51 °F 37 °F 18 °F (1904)
Degree Days  
Heating Degree Days 2 15  
Month to date heating degree days 220 295  
Since 1 July heating degree days 5394 5396  
Cooling Degree Days 0 0  
Month to date cooling degree days 3 0  
Year to date cooling degree days 3 0  
Growing Degree Days 13 (Base 50)    
Moisture  
Dew Point 54 °F    
Average Humidity 75    
Maximum Humidity 100    
Minimum Humidity 49    
Precipitation  
Precipitation 0.00 in 0.12 in 1.32 in (2006)
Month to date precipitation 1.59 2.12  
Year to date precipitation 11.44 12.41  
Snow  
Snow 0.00 in - - ()
Month to date snowfall 0.0  
Since 1 September snowfall 77.5  
Snow Depth 0.00 in    
Sea Level Pressure  
Sea Level Pressure 30.20 in    
Wind  
Wind Speed 1 mph (West)    
Max Wind Speed 7 mph    
Max Gust Speed 12 mph    
Visibility 7 miles    
Events Fog    
T = Trace of Precipitation, MM = Missing Value Source: NWS Daily Summary

Daily Weather History Graph

Daily Weather History Graph

Search for Another Location

Airport:

Trip Planner

Search our weather history database for the weather conditions in past years. The results will help you decide how hot, cold, wet, or windy it might be!

Date:

Astronomy

Apr. 17, 2013 Rise Set
Actual Time 6:39 AM EDT 7:58 PM EDT
Civil Twilight 6:12 AM EDT 8:26 PM EDT
Nautical Twilight 5:38 AM EDT 8:59 PM EDT
Astronomical Twilight 5:04 AM EDT 9:34 PM EDT
Moon 11:53 AM EDT (4/17) 1:34 AM EDT (4/17)
Length of Visible Light 14h 14m
Length of Day
13h 18m
Waxing Crescent, 42% of the Moon is Illuminated
Apr 17
Waxing Crescent
Apr 18
First Quarter
Apr 25
Full
May 2
Last Quarter
May 9
New

Hourly Weather History & Observations

Time (EDT) Temp. Dew Point Humidity Pressure Visibility Wind Dir Wind Speed Gust Speed Precip Events Conditions
12:51 AM 59.0 °F 57.0 °F 93% 30.22 in 10.0 mi South 4.6 mph - 0.01 in   Mostly Cloudy
1:51 AM 59.0 °F 55.0 °F 87% 30.19 in 10.0 mi SSE 5.8 mph - N/A   Clear
2:51 AM 57.9 °F 55.0 °F 90% 30.16 in 10.0 mi SE 3.5 mph - N/A   Clear
3:51 AM 55.0 °F 53.1 °F 93% 30.17 in 4.0 mi Calm Calm - N/A   Clear
3:58 AM 53.6 °F 53.6 °F 100% 30.20 in 2.0 mi Calm Calm - N/A   Clear
4:08 AM 53.6 °F 53.6 °F 100% 30.20 in 6.0 mi Calm Calm - N/A   Clear
4:20 AM 53.6 °F 51.8 °F 94% 30.20 in 1.8 mi Calm Calm - N/A   Clear
4:24 AM 55.4 °F 53.6 °F 94% 30.20 in 1.0 mi Calm Calm - N/A   Mist
4:32 AM 53.6 °F 51.8 °F 94% 30.20 in 0.5 mi Calm Calm - N/A Fog Fog
4:51 AM 53.1 °F 52.0 °F 96% 30.19 in 1.0 mi Calm Calm - N/A   Mist
5:05 AM 53.6 °F 51.8 °F 94% 30.21 in 2.0 mi Calm Calm - N/A   Clear
5:29 AM 53.6 °F 51.8 °F 94% 30.21 in 0.8 mi Calm Calm - N/A   Clear
5:45 AM 51.8 °F 51.8 °F 100% 30.21 in 0.2 mi Calm Calm - N/A Fog Fog
5:51 AM 52.0 °F 52.0 °F 100% 30.20 in 0.5 mi Calm Calm - N/A Fog Fog
6:13 AM 51.8 °F 51.8 °F 100% 30.23 in 1.8 mi Calm Calm - N/A   Overcast
6:17 AM 53.6 °F 51.8 °F 94% 30.23 in 3.0 mi Calm Calm - N/A   Overcast
6:34 AM 53.6 °F 51.8 °F 94% 30.22 in 5.0 mi Calm Calm - N/A   Mostly Cloudy
6:51 AM 52.0 °F 51.1 °F 97% 30.22 in 3.0 mi Calm Calm - N/A   Partly Cloudy
6:59 AM 51.8 °F 50.0 °F 94% 30.23 in 2.5 mi Calm Calm - N/A   Clear
7:13 AM 53.6 °F 51.8 °F 94% 30.22 in 5.0 mi Calm Calm - N/A   Clear
7:51 AM 54.0 °F 53.1 °F 97% 30.22 in 7.0 mi Calm Calm - N/A   Clear
8:51 AM 59.0 °F 55.0 °F 87% 30.23 in 10.0 mi Calm Calm - N/A   Clear
9:49 AM 62.6 °F 57.2 °F 82% 30.25 in 10.0 mi Calm Calm - N/A   Mostly Cloudy
9:51 AM 63.0 °F 57.0 °F 81% 30.25 in 10.0 mi Calm Calm - N/A   Mostly Cloudy
10:51 AM 64.9 °F 57.0 °F 75% 30.24 in 10.0 mi Calm Calm - N/A   Overcast
11:51 AM 66.0 °F 55.9 °F 70% 30.25 in 10.0 mi Calm Calm - N/A   Overcast
12:41 PM 66.2 °F 55.4 °F 68% 30.23 in 10.0 mi Calm Calm - N/A   Overcast
12:51 PM 68.0 °F 55.9 °F 65% 30.23 in 10.0 mi NW 4.6 mph - N/A   Mostly Cloudy
1:51 PM 69.1 °F 57.0 °F 65% 30.22 in 10.0 mi North 4.6 mph - N/A   Mostly Cloudy
2:51 PM 71.1 °F 54.0 °F 55% 30.19 in 10.0 mi Calm Calm - N/A   Mostly Cloudy
3:51 PM 71.1 °F 54.0 °F 55% 30.18 in 10.0 mi Calm Calm - N/A   Partly Cloudy
4:51 PM 73.0 °F 54.0 °F 51% 30.17 in 10.0 mi WNW 3.5 mph - N/A   Clear
5:51 PM 73.9 °F 54.0 °F 50% 30.16 in 10.0 mi Calm Calm - N/A   Clear
6:51 PM 73.0 °F 55.9 °F 55% 30.16 in 10.0 mi NW 4.6 mph - N/A   Clear
7:51 PM 66.9 °F 57.0 °F 70% 30.14 in 10.0 mi Calm Calm - N/A   Clear
8:51 PM 61.0 °F 55.9 °F 83% 30.15 in 10.0 mi Calm Calm - N/A   Mostly Cloudy
9:51 PM 60.1 °F 55.9 °F 86% 30.16 in 10.0 mi Calm Calm - N/A   Overcast
10:51 PM 57.9 °F 55.0 °F 90% 30.15 in 8.0 mi Calm Calm - N/A   Mostly Cloudy
11:51 PM 55.9 °F 53.1 °F 90% 30.15 in 10.0 mi Calm Calm - N/A   Clear